sat.trackr.live / text

‹ back to catalog

STARLINK-33626

NORAD 63369 · 2025-063G

PAYLOAD ACTIVE UNKNOWN

§ Identity

Operator
Country
US
Launch date
2025-03-26
Launch site
AFWTR
Launch vehicle
Mass (kg)
RCS (m²)

Purposes: comms

External: N2YO · Heavens-Above · Gunter

§ Orbital elements

Epoch: 2026-05-25T04:00:03.998880Z

Period
93.87 min
Inclination
53.1593°
Eccentricity
0.0001180
Mean motion
15.34111821 rev/d
Perigee alt
462.8 km
Apogee alt
464.4 km
Semi-major
6,841.7 km
B*
1.2793e-2
RAAN
54.8131°
Arg perigee
68.0123°
Mean anomaly
251.9792°
Rev number
590

§ Raw data

STARLINK-336261 63369U 25063G   26145.16671295  .00454879  00000+0  12793-1 0  99972 63369  53.1593  54.8131 0001180  68.0123 251.9792 15.34111821  5903

JSON: /api/v1/satellites/63369 · /tle

For live sub-satellite position, see the globe view (requires WebGL).

§ Visibility from observer

Set your observer location to see the next 7 days of passes ≥ 10°. The values pass through the URL so the page stays shareable.

No JS? Fill the form by hand. The geolocation button needs JavaScript.